Location: Peterborough
(44.3091°N, 78.3197°W)
Time: 04:20:21
(UTC-04:00)

Tiros 1 - Pass Details

Date: 11 April 2023
Orbit: 627 x 661 km, 48.4° (Epoch: 09 June)

Event Time Altitude Azimuth Distance (km) Brightness Sun altitude
Rises 04:43:24 0° 291° (WNW) 2,978 - -19.5°
Reaches altitude 10° 04:45:44 10° 293° (WNW) 2,069 - -19.1°
Exits shadow 04:47:16 20° 294° (WNW) 1,496 8.7 -18.9°
Maximum altitude 04:50:32 82° 21° (NNE) 670 7.2 -18.4°
Drops below altitude 10° 04:55:20 10° 110° (ESE) 2,072 10.3 -17.7°
Sets 04:57:41 0° 111° (ESE) 2,983 11.1 -17.3°
